Location: Sihaung
(22.8641°N, 94.0549°E)
Time: 11:39:05
(UTC+00:00)

Cosmos 1515 Rocket - Pass Details

Date: 03 March 2021
Orbit: 607 x 629 km, 82.5° (Epoch: 12 April)

Event Time Altitude Azimuth Distance (km) Brightness Sun altitude
Rises 23:35:15 0° 187° (S) 2,848 6.9 -7.2°
Reaches altitude 10° 23:37:27 10° 188° (S) 1,947 6.1 -6.7°
Maximum altitude 23:41:45 79° 275° (W) 622 3.5 -5.7°
Drops below altitude 10° 23:46:05 10° 2° (N) 1,959 6.1 -4.7°
Sets 23:48:19 0° 4° (N) 2,868 7.0 -4.2°
